Wind_Speed
17 25 35 32 31 32 32 32 31 27 21 23 23 27 26 27 28 26 28 25 27 26 24 22 22 28 22 20 21 19 20 20 18 13 10 11 8 7 6 6 6 8 10 11
15 22 24 29 30 32 32 32 34 32 28 27 27 29 26 25 28 28 29 27 30 28 28 22 23 25 27 27 22 18 19 20 18 16 15 13 12 11 9 9 9 8 11 13
19 18 14 18 24 28 34 34 33 33 29 26 26 33 29 22 21 22 24 28 28 29 28 30 20 19 24 28 27 19 16 19 18 18 19 17 15 13 11 10 11 12 13 15
14 16 19 21 21 22 29 26 31 31 30 29 25 22 25 20 19 21 20 23 23 25 28 27 23 23 23 26 28 21 16 19 19 20 21 17 14 12 13 16 17 15 18 17
10 13 13 18 20 19 25 20 25 27 30 29 31 21 23 19 18 19 20 22 18 17 24 22 26 24 19 22 25 26 16 24 22 19 16 16 15 14 17 20 20 20 22 23
13 13 12 10 12 13 15 17 19 19 21 21 24 27 26 20 14 14 19 21 19 15 18 21 20 22 18 19 24 33 33 26 23 19 16 13 12 14 18 17 20 25 26 24
16 10 10 13 12 11 11 15 20 18 18 14 23 19 15 16 12 12 16 16 15 16 13 20 26 27 27 23 21 35 35 31 26 21 20 14 12 14 16 15 21 27 28 30
10 13 3 5 11 10 10 16 17 14 10 10 17 13 19 14 13 10 8 10 15 18 18 22 25 30 32 32 26 32 36 33 28 23 18 17 16 15 14 15 17 19 11 11
10 7 9 8 9 9 5 9 11 14 16 15 19 26 20 12 12 6 8 10 13 22 23 27 30 34 37 41 34 29 36 35 31 23 22 17 17 14 12 14 9 7 2 6
6 14 9 8 10 13 13 8 11 10 11 14 12 23 22 17 19 14 15 12 14 17 26 32 36 37 41 36 34 31 39 36 30 27 23 18 15 13 12 13 10 8 7 8
11 9 13 11 9 11 11 15 18 19 15 15 11 17 16 19 18 19 16 17 19 19 18 30 37 38 38 35 33 39 43 39 33 29 28 20 17 13 13 14 13 11 11 10
8 9 15 17 10 8 8 9 12 18 15 23 24 29 15 10 14 18 17 20 19 17 16 23 28 30 29 28 40 40 41 38 33 32 29 23 19 15 13 14 13 13 12 11
13 10 16 18 14 11 8 5 8 11 15 23 23 24 11 11 13 25 21 23 15 14 8 10 14 19 19 31 39 36 35 36 35 34 31 24 20 17 15 15 13 13 12 12
13 14 16 21 21 15 14 11 11 11 19 24 22 23 25 8 16 20 20 15 8 5 3 10 14 13 19 28 36 40 41 39 38 36 31 26 21 19 16 17 15 15 14 12
11 16 18 19 20 20 21 19 18 17 18 17 19 21 23 26 24 20 18 12 5 3 7 10 17 14 14 14 18 22 35 38 41 41 37 29 21 19 23 20 20 18 16 15
14 17 17 21 23 23 20 21 19 18 19 19 19 22 23 26 20 12 10 11 8 7 5 7 9 7 0 7 6 13 14 25 31 37 31 19 22 27 25 22 23 20 18 17
22 17 16 22 19 21 21 23 15 14 13 14 19 14 18 15 13 11 11 6 5 2 9 15 20 20 9 11 10 9 10 21 26 35 36 33 33 31 27 23 24 22 19 20
19 15 17 22 18 17 16 8 8 9 7 8 15 11 12 11 9 11 10 5 2 2 6 13 7 8 14 19 18 21 17 17 24 29 28 33 35 25 28 29 26 26 25 24
9 11 15 18 19 19 15 9 5 5 10 11 5 5 5 2 4 4 3 3 4 2 1 2 6 11 15 20 18 21 28 29 29 35 32 39 34 44 40 38 33 28 27 24
7 11 14 13 12 16 1 8 4 4 11 5 6 7 3 1 7 9 7 4 4 4 5 8 9 11 11 15 20 26 30 34 38 42 49 53 54 49 48 41 38 30 29 28
11 9 14 15 16 5 6 9 5 3 7 4 10 5 3 5 15 11 11 11 12 13 14 19 16 13 9 9 14 16 19 26 33 34 37 30 54 50 47 40 33 31 28 24
5 7 4 5 8 9 11 6 3 6 10 11 7 1 3 7 7 7 8 6 7 9 6 4 7 5 5 10 14 18 7 8 19 17 16 12 8 15 19 31 27 26 23 25
3 6 7 5 9 13 13 9 9 10 13 13 11 10 8 4 3 4 8 6 7 6 7 8 7 5 2 6 10 11 11 5 10 14 19 22 7 4 10 12 16 21 25 29
5 11 5 12 10 15 14 11 8 9 11 9 8 6 5 7 8 10 10 10 10 11 12 9 6 5 4 2 2 3 6 8 12 13 10 2 10 11 12 16 21 26 28 29
6 10 10 12 8 10 9 8 8 7 6 3 1 3 3 7 10 11 14 13 11 9 10 8 6 3 2 4 5 8 7 10 12 7 7 8 13 15 18 20 20 21 22 22
5 8 12 15 14 5 4 5 6 7 7 6 4 3 1 4 8 9 15 5 6 5 4 2 4 3 5 9 10 8 8 9 11 13 14 13 13 13 14 15 16 17 18 19
Wind_Direction
251 242 242 248 252 255 256 260 264 265 260 265 269 273 270 266 265 265 260 263 258 253 234 239 229 223 235 240 230 225 217 213 212 216 213 213 204 213 225 250 259 249 250 246
243 257 261 254 255 254 253 258 259 261 259 263 271 272 274 269 262 257 252 256 256 241 227 244 239 239 244 247 243 235 225 226 220 217 221 221 219 227 234 242 257 267 258 251
251 267 275 257 254 253 253 253 256 256 258 258 267 274 275 275 261 252 244 243 245 242 222 232 239 241 246 245 243 235 231 230 229 225 227 231 230 232 237 255 257 263 264 264
263 281 269 257 256 259 263 258 254 255 252 252 258 274 269 272 269 247 237 228 229 233 231 233 241 238 240 243 233 223 230 216 214 221 227 232 243 247 247 254 259 273 271 263
286 294 289 259 261 266 269 266 258 253 251 252 252 256 264 265 272 254 234 224 220 224 230 236 236 248 248 246 245 232 235 235 206 209 220 223 232 244 252 266 269 279 276 269
291 292 272 268 266 268 274 261 253 258 258 253 240 254 265 260 265 256 233 227 224 226 231 224 233 241 248 239 229 227 227 222 216 209 213 215 229 242 251 280 281 279 270 260
318 317 276 251 264 265 265 252 246 233 229 242 245 259 257 261 258 261 246 238 232 239 238 235 238 245 252 259 244 228 223 220 214 210 216 230 237 248 260 292 295 298 277 271
328 332 322 249 239 268 274 257 268 286 279 326 343 224 247 248 247 279 263 263 250 245 245 236 236 243 251 255 251 237 215 209 213 215 220 228 244 257 273 292 295 326 310 214
317 303 316 263 263 246 195 241 276 250 267 277 228 241 266 246 236 292 327 265 280 258 243 226 234 236 241 243 249 237 207 202 208 212 220 227 240 254 266 278 273 316 48 173
303 304 312 280 259 236 242 244 225 207 255 248 249 274 273 266 255 290 312 314 317 299 255 227 224 229 234 243 247 218 198 200 202 211 218 225 237 244 254 254 257 273 276 262
308 281 292 292 242 272 242 235 245 267 231 257 270 261 277 252 266 291 307 317 315 304 272 233 224 230 226 233 229 195 194 199 202 208 213 225 238 242 247 244 251 266 271 271
315 295 287 285 291 277 268 264 266 266 241 244 267 276 289 259 276 288 295 312 315 313 278 239 227 227 224 218 190 183 192 196 201 206 214 222 230 235 241 242 248 258 265 268
310 288 298 273 228 230 230 272 272 271 270 268 276 276 242 256 268 277 294 303 308 318 268 202 187 205 204 187 179 185 191 197 201 208 209 218 230 234 234 236 242 254 258 276
277 280 271 281 305 308 296 285 290 286 280 289 275 273 272 284 283 282 292 295 284 318 267 137 130 145 171 177 182 192 195 199 204 206 207 210 219 233 242 246 239 246 255 268
292 276 276 269 269 282 282 280 284 272 283 277 284 291 279 279 289 292 278 271 261 179 99 109 88 97 127 149 206 206 205 210 209 208 206 198 207 230 244 239 246 246 248 254
284 282 277 273 275 271 274 273 274 276 277 277 281 281 270 266 285 261 295 259 252 213 213 164 235 53 180 224 186 231 223 218 213 200 198 221 222 240 236 237 248 247 245 251
275 273 275 272 276 278 267 270 259 270 278 285 284 283 268 263 251 255 264 280 292 246 213 245 274 263 246 252 246 226 231 218 218 220 253 242 232 232 241 232 241 243 244 252
264 265 266 267 266 268 272 264 273 293 264 281 297 269 246 239 241 251 241 215 138 340 148 197 228 235 235 233 240 230 231 238 242 243 220 214 232 238 257 240 235 246 253 257
273 243 261 259 247 257 263 276 293 279 263 241 347 339 161 195 234 212 225 162 159 132 282 202 203 216 225 215 229 223 228 241 249 231 225 221 247 247 242 247 242 247 254 257
260 256 243 266 268 260 183 270 19 304 266 272 210 284 39 107 258 269 293 306 299 268 305 308 292 273 260 252 243 239 239 247 240 241 238 239 251 243 246 237 243 249 252 254
289 261 248 254 247 237 318 231 257 295 304 253 298 251 299 283 268 278 292 299 302 307 312 318 313 301 289 261 253 254 257 254 251 244 242 257 235 216 217 223 237 245 249 259
302 315 303 292 263 241 311 307 244 253 270 271 269 201 245 261 296 300 294 289 292 301 326 21 85 77 79 46 36 30 326 241 217 204 205 195 157 173 181 203 235 245 257 264
323 346 318 338 307 311 313 278 265 264 262 284 299 317 317 315 313 261 259 235 222 186 170 151 144 133 94 39 45 28 30 119 114 102 125 144 104 178 240 246 263 273 275 277
303 323 317 345 334 325 310 303 279 273 277 297 308 287 267 248 225 213 208 200 198 193 196 186 161 125 86 89 46 349 8 339 23 35 55 357 287 284 291 286 280 279 282 284
336 342 338 300 326 329 332 316 300 282 277 279 253 244 255 207 205 212 205 205 208 205 207 216 214 222 15 356 316 298 282 314 321 310 304 303 298 300 294 293 292 291 290 286
268 296 318 308 316 300 296 348 63 95 116 139 135 129 308 284 245 199 186 151 199 204 195 291 262 320 319 297 279 280 281 285 283 298 305 312 315 316 313 309 305 300 296 293
Height
3146 3148 3146 3149 3150 3150 3152 3151 3151 3150 3151 3151 3150 3148 3149 3149 3149 3150 3150 3152 3151 3151 3151 3153 3156 3158 3160 3163 3165 3166 3168 3169 3170 3172 3173 3173 3173 3174 3174 3174 3174 3175 3177 3178
3146 3141 3142 3144 3145 3145 3146 3146 3145 3146 3147 3147 3145 3142 3143 3143 3141 3143 3144 3145 3145 3144 3145 3147 3150 3153 3155 3158 3161 3163 3165 3167 3168 3169 3170 3171 3172 3171 3172 3172 3173 3173 3174 3175
3140 3138 3138 3138 3138 3138 3138 3139 3140 3140 3141 3139 3139 3134 3136 3136 3135 3136 3137 3138 3139 3139 3140 3142 3145 3148 3150 3152 3156 3160 3162 3164 3167 3167 3167 3168 3169 3170 3170 3170 3171 3170 3170 3170
3135 3134 3133 3133 3133 3133 3131 3134 3134 3135 3135 3131 3132 3125 3129 3130 3130 3130 3131 3132 3133 3133 3135 3137 3140 3142 3144 3146 3152 3157 3158 3160 3163 3164 3165 3166 3168 3168 3168 3167 3166 3166 3167 3167
3133 3129 3128 3127 3128 3129 3128 3129 3128 3128 3127 3128 3125 3125 3122 3125 3125 3124 3125 3128 3129 3129 3130 3132 3135 3137 3140 3143 3146 3150 3153 3156 3159 3161 3163 3164 3165 3165 3165 3163 3163 3163 3162 3162
3126 3124 3123 3124 3125 3125 3125 3125 3124 3125 3123 3115 3116 3119 3115 3119 3119 3119 3120 3123 3126 3127 3127 3127 3130 3132 3134 3136 3139 3144 3146 3151 3155 3156 3159 3161 3161 3162 3161 3162 3160 3157 3156 3155
3125 3122 3120 3121 3123 3123 3123 3122 3119 3116 3112 3110 3111 3111 3109 3114 3116 3116 3117 3118 3120 3121 3121 3122 3124 3127 3127 3130 3133 3135 3140 3145 3149 3153 3156 3157 3158 3158 3158 3158 3156 3152 3148 3145
3123 3120 3120 3119 3120 3119 3117 3118 3114 3113 3112 3110 3107 3107 3110 3111 3111 3111 3110 3111 3112 3113 3115 3116 3119 3121 3123 3123 3125 3127 3132 3139 3144 3148 3152 3154 3155 3155 3155 3155 3153 3149 3142 3140
3123 3119 3119 3118 3117 3118 3116 3116 3115 3115 3112 3111 3115 3112 3108 3107 3107 3107 3105 3105 3106 3106 3107 3109 3111 3113 3115 3116 3118 3120 3126 3134 3140 3144 3148 3150 3152 3153 3153 3152 3151 3149 3146 3146
3124 3121 3116 3115 3115 3114 3114 3114 3112 3112 3111 3104 3103 3103 3101 3103 3102 3104 3102 3100 3099 3097 3097 3099 3100 3103 3105 3108 3111 3114 3121 3128 3135 3139 3143 3146 3148 3149 3149 3149 3148 3148 3147 3146
3123 3121 3116 3113 3110 3108 3109 3108 3109 3108 3108 3106 3093 3093 3095 3098 3099 3099 3098 3094 3093 3090 3088 3089 3090 3092 3096 3099 3102 3108 3114 3121 3128 3134 3138 3141 3143 3145 3145 3145 3146 3146 3146 3145
3121 3118 3115 3110 3107 3107 3107 3105 3105 3101 3100 3100 3096 3091 3092 3095 3097 3094 3093 3090 3088 3086 3081 3079 3081 3086 3089 3092 3096 3103 3110 3119 3127 3132 3135 3138 3139 3141 3142 3142 3143 3144 3144 3144
3119 3115 3111 3105 3105 3104 3103 3104 3105 3104 3101 3097 3093 3090 3089 3091 3093 3090 3089 3087 3086 3082 3079 3077 3078 3082 3085 3091 3096 3102 3109 3115 3120 3125 3130 3135 3137 3138 3138 3139 3139 3141 3141 3142
3116 3115 3113 3108 3101 3103 3103 3102 3102 3101 3098 3090 3086 3087 3087 3088 3086 3086 3085 3084 3084 3081 3079 3077 3077 3080 3085 3090 3094 3097 3102 3108 3113 3118 3122 3126 3129 3134 3136 3137 3137 3138 3139 3138
3114 3112 3110 3106 3104 3103 3101 3099 3098 3098 3095 3094 3087 3086 3085 3083 3084 3085 3081 3083 3082 3083 3081 3081 3080 3084 3087 3089 3092 3096 3100 3103 3105 3108 3112 3116 3123 3129 3131 3133 3135 3134 3134 3134
3109 3107 3105 3102 3100 3098 3096 3095 3093 3093 3092 3090 3088 3086 3080 3081 3082 3081 3080 3079 3079 3080 3083 3081 3076 3077 3085 3086 3088 3093 3097 3101 3104 3106 3106 3118 3119 3120 3123 3127 3130 3131 3130 3130
3103 3102 3101 3095 3095 3093 3091 3087 3086 3089 3089 3087 3085 3083 3077 3078 3078 3078 3078 3078 3077 3079 3078 3080 3078 3077 3082 3087 3090 3095 3097 3099 3105 3106 3107 3109 3117 3114 3117 3121 3123 3124 3124 3124
3095 3096 3096 3093 3093 3088 3083 3081 3083 3084 3082 3082 3077 3076 3074 3075 3075 3076 3076 3075 3075 3075 3077 3080 3076 3077 3082 3084 3089 3088 3095 3098 3100 3103 3103 3105 3107 3109 3114 3118 3116 3117 3118 3118
3090 3091 3090 3088 3084 3081 3079 3079 3081 3081 3080 3077 3075 3074 3072 3073 3074 3075 3076 3075 3075 3076 3074 3077 3078 3080 3083 3084 3083 3083 3089 3091 3090 3091 3093 3096 3098 3100 3106 3110 3111 3110 3113 3112
3088 3086 3088 3082 3080 3074 3077 3076 3077 3076 3076 3074 3073 3072 3073 3074 3077 3078 3077 3076 3074 3074 3076 3075 3076 3078 3078 3080 3081 3082 3083 3083 3084 3086 3086 3087 3088 3093 3097 3100 3102 3104 3104 3106
3085 3083 3082 3079 3077 3075 3074 3074 3075 3078 3081 3074 3070 3072 3073 3074 3075 3075 3074 3074 3073 3072 3072 3072 3071 3071 3072 3072 3071 3070 3071 3072 3070 3068 3067 3071 3068 3074 3081 3087 3092 3098 3099 3099
3083 3081 3079 3077 3074 3073 3074 3074 3075 3076 3073 3073 3073 3073 3073 3072 3070 3069 3070 3070 3070 3070 3071 3071 3069 3067 3066 3065 3063 3062 3064 3062 3060 3060 3058 3056 3049 3052 3062 3073 3090 3093 3091 3093
3084 3083 3082 3081 3079 3076 3073 3072 3072 3071 3071 3070 3070 3068 3067 3067 3068 3068 3068 3069 3068 3069 3070 3071 3069 3068 3067 3066 3066 3066 3066 3064 3060 3057 3055 3055 3060 3069 3074 3077 3081 3083 3084 3084
3082 3080 3081 3079 3077 3074 3070 3068 3068 3068 3068 3068 3067 3067 3067 3066 3066 3066 3067 3067 3067 3067 3068 3068 3067 3066 3066 3067 3067 3067 3066 3065 3062 3060 3060 3063 3067 3069 3068 3070 3073 3075 3074 3073
3081 3079 3078 3076 3075 3072 3068 3067 3066 3065 3066 3067 3066 3066 3065 3065 3064 3065 3066 3064 3064 3064 3064 3064 3065 3064 3064 3064 3065 3065 3065 3064 3062 3062 3062 3063 3063 3063 3063 3065 3067 3066 3065 3066
3079 3079 3079 3076 3073 3071 3069 3066 3064 3064 3065 3065 3065 3065 3064 3064 3062 3060 3059 3060 3061 3062 3063 3062 3063 3064 3063 3063 3065 3065 3064 3064 3065 3064 3061 3059 3059 3060 3061 3062 3061 3061 3061 3061